Weather History for Sturgis, MI

Change the Weather History Date:

Thursday, February 14, 2013

  Actual Average (KHAI) Record (KHAI)
Temperature  
Mean Temperature 34 °F -  
Max Temperature 39 °F 34 °F 59 °F (1990)
Min Temperature 30 °F 16 °F -5 °F (1970)
Degree Days  
Heating Degree Days 30    
Moisture  
Dew Point 30 °F    
Average Humidity 82    
Maximum Humidity 93    
Minimum Humidity 70    
Precipitation  
Precipitation 0.00 in - - ()
Sea Level Pressure  
Sea Level Pressure 29.75 in    
Wind  
Wind Speed 10 mph (SW)    
Max Wind Speed 23 mph    
Max Gust Speed 31 mph    
Visibility 8 miles    
Events      
Averages and records for this station are not official NWS values.
T = Trace of Precipitation, MM = Missing Value Source: NWS Daily Summary

Daily Weather History Graph

Daily Weather History Graph

Search for Another Location

Airport:

Trip Planner

Search our weather history database for the weather conditions in past years. The results will help you decide how hot, cold, wet, or windy it might be!

Date:

Astronomy

Feb. 14, 2013 Rise Set
Actual Time 7:38 AM EST 6:14 PM EST
Civil Twilight 7:09 AM EST 6:42 PM EST
Nautical Twilight 6:37 AM EST 7:15 PM EST
Astronomical Twilight 6:04 AM EST 7:47 PM EST
Moon 9:34 AM EST (2/14) 11:21 PM EST (2/14)
Length of Visible Light 11h 32m
Length of Day
10h 35m
Waxing Crescent, 21% of the Moon is Illuminated
Feb 14
Waxing Crescent
Feb 17
First Quarter
Feb 25
Full
Mar 4
Last Quarter
Mar 11
New

Hourly Weather History & Observations

Time (EST) Temp. Windchill Dew Point Humidity Pressure Visibility Wind Dir Wind Speed Gust Speed Precip Events Conditions
12:15 AM 30.2 °F 26.7 °F 26.6 °F 86% 29.75 in 7.0 mi SSW 3.5 mph - N/A   Scattered Clouds
12:35 AM 30.2 °F 25.4 °F 28.4 °F 93% 29.74 in 7.0 mi SSW 4.6 mph - N/A   Scattered Clouds
12:55 AM 30.2 °F 23.4 °F 28.4 °F 93% 29.75 in 7.0 mi SSW 6.9 mph - N/A   Clear
1:14 AM 30.2 °F 24.3 °F 28.4 °F 93% 29.75 in 7.0 mi SSW 5.8 mph - N/A   Clear
1:34 AM 30.2 °F 24.3 °F 28.4 °F 93% 29.75 in 5.0 mi SW 5.8 mph - N/A   Clear
1:55 AM 30.2 °F 25.4 °F 28.4 °F 93% 29.74 in 5.0 mi SSW 4.6 mph - N/A   Mostly Cloudy
2:14 AM 30.2 °F 25.4 °F 28.4 °F 93% 29.74 in 5.0 mi SSW 4.6 mph - N/A   Overcast
2:35 AM 32.0 °F 25.6 °F 30.2 °F 93% 29.75 in 5.0 mi SW 6.9 mph - N/A   Overcast
2:55 AM 32.0 °F 26.4 °F 30.2 °F 93% 29.75 in 5.0 mi SW 5.8 mph - N/A   Overcast
3:14 AM 32.0 °F 25.6 °F 30.2 °F 93% 29.75 in 5.0 mi SW 6.9 mph - N/A   Overcast
3:35 AM 32.0 °F 25.6 °F 30.2 °F 93% 29.75 in 5.0 mi SW 6.9 mph - N/A   Overcast
3:55 AM 32.0 °F 24.8 °F 30.2 °F 93% 29.74 in 5.0 mi SSW 8.1 mph - N/A   Overcast
4:14 AM 33.8 °F 27.0 °F 30.2 °F 87% 29.74 in 5.0 mi SSW 8.1 mph - N/A   Overcast
4:35 AM 32.0 °F 26.4 °F 30.2 °F 93% 29.74 in 5.0 mi SSW 5.8 mph - N/A   Overcast
4:54 AM 32.0 °F 27.5 °F 30.2 °F 93% 29.73 in 5.0 mi South 4.6 mph - N/A   Overcast
5:14 AM 32.0 °F 27.5 °F 30.2 °F 93% 29.73 in 5.0 mi South 4.6 mph - N/A   Overcast
5:35 AM 32.0 °F 27.5 °F 30.2 °F 93% 29.73 in 5.0 mi South 4.6 mph - N/A   Overcast
5:54 AM 32.0 °F 27.5 °F 30.2 °F 93% 29.73 in 5.0 mi South 4.6 mph - N/A   Overcast
6:15 AM 32.0 °F 25.6 °F 30.2 °F 93% 29.72 in 7.0 mi SSW 6.9 mph - N/A   Overcast
6:35 AM 32.0 °F 25.6 °F 30.2 °F 93% 29.72 in 7.0 mi SSW 6.9 mph - N/A   Overcast
6:54 AM 33.8 °F 27.0 °F 30.2 °F 87% 29.72 in 7.0 mi SSW 8.1 mph - N/A   Overcast
7:15 AM 33.8 °F 26.4 °F 30.2 °F 87% 29.72 in 7.0 mi SSW 9.2 mph - N/A   Overcast
7:35 AM 33.8 °F 26.4 °F 30.2 °F 87% 29.72 in 7.0 mi SSW 9.2 mph - N/A   Overcast
7:54 AM 33.8 °F 25.8 °F 30.2 °F 87% 29.71 in 7.0 mi South 10.4 mph - N/A   Overcast
8:15 AM 33.8 °F 25.8 °F 30.2 °F 87% 29.70 in 7.0 mi South 10.4 mph - N/A   Mostly Cloudy
8:35 AM 33.8 °F 25.8 °F 30.2 °F 87% 29.70 in 7.0 mi South 10.4 mph - N/A   Mostly Cloudy
8:54 AM 33.8 °F 26.4 °F 30.2 °F 87% 29.70 in 7.0 mi SSW 9.2 mph - N/A   Overcast
9:15 AM 35.6 °F 27.5 °F 30.2 °F 81% 29.69 in 7.0 mi South 11.5 mph - N/A   Overcast
9:35 AM 35.6 °F 27.1 °F 30.2 °F 81% 29.69 in 7.0 mi South 12.7 mph - N/A   Overcast
9:54 AM 35.6 °F 25.9 °F 32.0 °F 87% 29.69 in 7.0 mi SSW 16.1 mph - N/A   Scattered Clouds
10:15 AM 37.4 °F 28.2 °F 33.8 °F 87% 29.69 in 10.0 mi SSW 16.1 mph - N/A   Scattered Clouds
10:35 AM 37.4 °F 27.5 °F 33.8 °F 87% 29.69 in 7.0 mi SSW 18.4 mph 24.2 mph N/A   Mostly Cloudy
10:55 AM 37.4 °F 26.6 °F 33.8 °F 87% 29.69 in 7.0 mi SW 21.9 mph 25.3 mph N/A   Overcast
11:15 AM 37.4 °F 27.8 °F 33.8 °F 87% 29.69 in 10.0 mi SW 17.3 mph 26.5 mph N/A   Overcast
11:35 AM 37.4 °F 27.8 °F 33.8 °F 87% 29.69 in 10.0 mi SW 17.3 mph - N/A   Overcast
11:54 AM 37.4 °F 27.2 °F 33.8 °F 87% 29.69 in 10.0 mi SW 19.6 mph 24.2 mph N/A   Overcast
12:15 PM 37.4 °F 27.5 °F 33.8 °F 87% 29.69 in 10.0 mi SW 18.4 mph 26.5 mph N/A   Overcast
12:34 PM 37.4 °F 28.2 °F 33.8 °F 87% 29.69 in 10.0 mi SW 16.1 mph 23.0 mph N/A   Overcast
12:55 PM 39.2 °F 30.2 °F 33.8 °F 81% 29.68 in 10.0 mi SW 17.3 mph 24.2 mph N/A   Overcast
1:15 PM 37.4 °F 28.2 °F 33.8 °F 87% 29.68 in 10.0 mi SW 16.1 mph 24.2 mph N/A   Overcast
1:34 PM 37.4 °F 28.9 °F 33.8 °F 87% 29.68 in 10.0 mi SW 13.8 mph - N/A   Overcast
1:55 PM 37.4 °F 27.8 °F 33.8 °F 87% 29.68 in 10.0 mi SW 17.3 mph - N/A   Overcast
2:15 PM 37.4 °F 27.8 °F 33.8 °F 87% 29.67 in 10.0 mi SW 17.3 mph 21.9 mph N/A   Overcast
2:34 PM 39.2 °F 30.2 °F 32.0 °F 75% 29.67 in 10.0 mi WSW 17.3 mph 24.2 mph N/A   Overcast
2:55 PM 39.2 °F 29.8 °F 30.2 °F 70% 29.68 in 10.0 mi WSW 18.4 mph 26.5 mph N/A   Overcast
3:15 PM 37.4 °F 26.6 °F 30.2 °F 75% 29.69 in 10.0 mi West 21.9 mph 31.1 mph N/A   Overcast
3:34 PM 39.2 °F 29.8 °F 30.2 °F 70% 29.70 in 10.0 mi WSW 18.4 mph 26.5 mph N/A   Overcast
3:55 PM 37.4 °F 28.2 °F 28.4 °F 70% 29.71 in 10.0 mi West 16.1 mph 20.7 mph N/A   Overcast
4:14 PM 37.4 °F 26.4 °F 28.4 °F 70% 29.72 in 10.0 mi WSW 23.0 mph 27.6 mph N/A   Overcast
4:35 PM 37.4 °F 28.2 °F 28.4 °F 70% 29.73 in 10.0 mi WSW 16.1 mph 23.0 mph N/A   Overcast
4:55 PM 37.4 °F 27.8 °F 28.4 °F 70% 29.74 in 10.0 mi WSW 17.3 mph 21.9 mph N/A   Overcast
5:14 PM 37.4 °F 27.8 °F 28.4 °F 70% 29.75 in 10.0 mi West 17.3 mph 21.9 mph N/A   Overcast
5:35 PM 37.4 °F 28.2 °F 28.4 °F 70% 29.76 in 10.0 mi West 16.1 mph 21.9 mph N/A   Overcast
5:55 PM 37.4 °F 27.8 °F 30.2 °F 75% 29.78 in 10.0 mi West 17.3 mph 27.6 mph N/A   Overcast
6:14 PM 35.6 °F 24.8 °F 28.4 °F 75% 29.79 in 10.0 mi West 19.6 mph 29.9 mph N/A   Overcast
6:35 PM 35.6 °F 25.5 °F 28.4 °F 75% 29.81 in 10.0 mi WNW 17.3 mph 29.9 mph N/A   Overcast
6:55 PM 35.6 °F 24.5 °F 26.6 °F 70% 29.82 in 10.0 mi West 20.7 mph 25.3 mph N/A   Overcast
7:14 PM 35.6 °F 25.5 °F 26.6 °F 70% 29.83 in 10.0 mi West 17.3 mph 25.3 mph N/A   Overcast
7:35 PM 35.6 °F 26.2 °F 26.6 °F 70% 29.84 in 10.0 mi West 15.0 mph 27.6 mph N/A   Overcast
7:55 PM 35.6 °F 25.9 °F 26.6 °F 70% 29.85 in 10.0 mi West 16.1 mph 25.3 mph N/A   Overcast
8:14 PM 33.8 °F 24.3 °F 26.6 °F 75% 29.85 in 10.0 mi WNW 13.8 mph 19.6 mph N/A   Overcast
8:35 PM 33.8 °F 24.8 °F 26.6 °F 75% 29.86 in 10.0 mi West 12.7 mph 20.7 mph N/A   Overcast
8:54 PM 33.8 °F 24.8 °F 26.6 °F 75% 29.87 in 10.0 mi West 12.7 mph 23.0 mph N/A   Overcast
9:15 PM 33.8 °F 25.3 °F 26.6 °F 75% 29.87 in 10.0 mi West 11.5 mph 21.9 mph N/A   Overcast
9:35 PM 33.8 °F 23.9 °F 24.8 °F 70% 29.88 in 10.0 mi West 15.0 mph 20.7 mph N/A   Overcast
9:54 PM 33.8 °F 24.3 °F 24.8 °F 70% 29.89 in 10.0 mi West 13.8 mph 20.7 mph N/A   Overcast
10:15 PM 33.8 °F 25.3 °F 24.8 °F 70% 29.90 in 10.0 mi WNW 11.5 mph 16.1 mph N/A   Overcast
10:35 PM 33.8 °F 25.3 °F 24.8 °F 70% 29.90 in 10.0 mi West 11.5 mph 17.3 mph N/A   Overcast
10:54 PM 32.0 °F 22.1 °F 24.8 °F 75% 29.90 in 10.0 mi West 13.8 mph 18.4 mph N/A   Overcast
11:15 PM 32.0 °F 23.6 °F 24.8 °F 75% 29.90 in 10.0 mi West 10.4 mph 18.4 mph N/A   Mostly Cloudy
11:35 PM 32.0 °F 24.8 °F 24.8 °F 75% 29.90 in 10.0 mi West 8.1 mph - N/A   Mostly Cloudy
11:54 PM 32.0 °F 24.2 °F 24.8 °F 75% 29.90 in 10.0 mi West 9.2 mph 17.3 mph N/A   Overcast